Back to catalog

BREEZE-M DEB

TANK

AliveHEO
NORAD 27646·DEBRIS·🇷🇺 Russia

Launched Dec 29, 2002 from Baikonur Cosmodrome

Loading…

Next Passes (next 24 hours)

TLE

FreshSource: Space-Track

Epoch: Sep 12, 2026, 03:08 UTC

1 27646U 02062C   26255.13093021  .00000008  00000-0  14705-3 0  9992
2 27646  49.4906 153.1585 5425692 223.1606 344.5466  4.61724335399479

Track BREEZE-M DEB in real time with AllMySat

Download on the App Store